Location: Prairie State College
(41.5244°N, 87.6382°W)
Time: 06:33:52
(UTC-05:00)

Cosmos 1140 Rocket - Visible Passes

Search period start: 26 April 2015 00:00
Search period end: 06 May 2015 00:00
Orbit: 745 x 769 km, 74.1° (Epoch: 26 April)

Date Brightness Start Highest point End Pass type
(mag) Time Alt. Az. Time Alt. Az. Time Alt. Az.
26 Apr 5.2 01:44:16 27° ENE 01:44:16 27° ENE 01:47:12 10° NE visible
26 Apr 4.6 03:24:17 30° WNW 03:24:24 30° WNW 03:28:54 10° N visible
27 Apr 5.9 01:04:34 15° ENE 01:04:34 15° ENE 01:05:57 10° NE visible
27 Apr 4.1 02:44:35 48° NW 02:44:35 48° NW 02:48:54 10° N visible
28 Apr 4.3 02:04:52 48° NNE 02:04:52 48° NNE 02:08:37 10° NNE visible
28 Apr 5.5 03:44:53 13° WNW 03:46:03 14° NW 03:48:30 10° NNW visible
29 Apr 5.0 01:25:07 31° NE 01:25:07 31° NE 01:28:04 10° NNE visible
29 Apr 5.0 03:05:08 23° WNW 03:05:13 23° WNW 03:09:16 10° N visible
30 Apr 5.6 00:45:20 18° ENE 00:45:20 18° ENE 00:47:08 10° NE visible
30 Apr 4.5 02:25:21 37° NW 02:25:21 37° NW 02:29:25 10° N visible
01 May 4.4 01:45:33 46° N 01:45:33 46° N 01:49:16 10° NNE visible
01 May 5.8 03:26:09 10° WNW 03:27:00 10° NW 03:27:33 10° NW visible
02 May 4.8 01:05:43 36° NE 01:05:43 36° NE 01:08:51 10° NNE visible
02 May 5.4 02:45:44 18° WNW 02:46:04 18° NW 02:49:29 10° NNW visible
03 May 5.3 00:25:52 22° NE 00:25:52 22° NE 00:28:07 10° NE visible
03 May 4.9 02:05:53 29° NW 02:05:53 29° NW 02:09:51 10° N visible
03 May 5.8 23:45:59 13° ENE 23:45:59 13° ENE 23:46:52 10° NE visible
04 May 4.5 01:26:00 42° NNW 01:26:00 42° NNW 01:29:50 10° N visible
05 May 4.5 00:46:06 42° NNE 00:46:06 42° NNE 00:49:33 10° NNE visible
05 May 5.7 02:26:06 13° WNW 02:26:57 14° NW 02:29:28 10° NNW visible
